Wetbulb
75.76 76.35 76.33 75.84 76.09 76.40 75.11 76.50 76.46 77.32 77.54 77.09 77.89 77.38 76.96 76.93 77.26 78.28 78.26 77.81 77.42 77.22 76.90 76.17 75.96 78.10 74.52 74.67 74.51 75.12 75.33 73.19 70.46 72.24 73.67 75.55 77.55 77.13 77.04 78.08 75.41 76.65 69.89
75.84 76.20 75.89 76.19 76.29 75.74 75.69 75.52 76.64 77.50 78.07 78.13 77.47 77.72 77.10 76.69 77.63 77.28 76.36 76.13 76.18 75.96 76.04 76.65 75.16 74.43 77.67 79.41 75.35 78.48 75.98 76.14 72.41 74.58 75.29 74.12 76.52 74.88 77.51 77.22 76.60 75.60 72.30
75.86 75.49 75.63 75.95 75.70 75.65 75.98 77.16 77.06 78.52 78.24 77.42 78.53 77.37 77.08 76.90 77.87 77.26 77.61 76.30 76.30 76.56 75.87 76.97 76.56 76.23 76.66 75.77 76.42 75.48 74.71 74.26 73.86 72.78 72.69 74.39 75.07 77.84 77.53 75.41 74.66 75.88 73.21
75.01 76.18 77.35 76.72 77.16 75.98 76.90 78.18 77.35 78.57 78.30 78.45 78.27 78.15 77.56 77.15 77.44 76.55 77.43 76.51 77.11 76.47 76.55 76.03 76.10 75.30 76.43 77.72 75.84 77.29 76.46 75.46 75.87 73.86 73.38 74.77 76.87 75.83 74.44 74.52 76.15 74.28 68.76
75.17 75.53 77.40 79.20 78.49 79.00 78.96 78.89 78.41 78.29 78.10 78.82 78.56 77.95 77.93 76.47 75.81 77.81 77.73 76.93 77.04 76.44 76.44 76.21 76.46 74.95 73.99 74.10 74.71 78.20 76.99 75.79 76.35 76.02 74.76 75.47 75.11 71.59 69.99 73.53 76.42 75.51 75.73
75.21 75.48 77.85 77.72 78.20 78.45 78.64 78.09 78.78 78.20 78.28 78.63 77.72 77.60 77.72 75.41 70.55 70.26 75.25 76.86 77.43 77.59 75.76 76.48 77.79 75.30 73.79 72.10 71.28 70.70 71.05 75.42 74.72 71.99 73.76 71.95 70.78 74.20 75.55 73.64 72.87 72.31 70.47
73.82 74.75 76.18 77.78 77.39 78.73 78.98 78.79 78.54 77.69 78.45 77.63 77.64 77.92 77.81 78.56 66.89 67.98 70.01 75.64 75.70 75.80 77.08 76.39 75.92 75.64 75.05 75.97 69.69 67.58 66.89 66.80 68.35 73.74 73.42 73.00 72.55 71.36 70.68 70.39 70.48 69.66 70.28
73.64 72.75 75.41 76.79 76.99 78.48 78.27 78.29 78.82 78.68 78.77 77.84 77.83 78.00 78.00 77.45 64.90 65.14 68.26 75.46 76.18 76.36 76.29 77.10 76.68 76.38 76.14 75.74 74.86 73.74 73.46 70.56 68.64 72.79 72.74 69.25 67.18 67.69 69.64 68.38 71.21 71.18 69.70
73.64 74.73 75.35 75.62 76.75 77.74 77.31 77.27 78.05 77.84 78.16 77.83 77.99 78.39 78.07 78.00 63.02 63.49 68.82 75.19 74.54 76.55 77.13 76.87 76.46 76.08 64.77 65.75 74.26 73.49 72.48 67.60 59.19 58.99 58.82 58.65 59.61 60.75 62.92 69.14 69.22 70.45 68.20
72.26 73.66 75.09 75.99 75.81 75.44 77.14 77.26 77.65 77.73 77.66 77.05 77.60 77.92 73.79 78.21 61.19 61.48 67.74 74.54 74.70 73.03 76.04 70.88 60.86 67.59 61.27 62.78 71.31 73.09 71.62 68.02 64.51 63.95 64.40 62.54 63.63 61.12 61.29 62.29 62.71 63.69 63.44
73.34 73.69 74.76 74.57 74.54 74.91 76.64 77.90 77.10 76.82 77.12 77.20 76.94 77.84 78.28 76.84 72.61 60.39 60.75 75.24 73.81 75.34 71.79 69.69 65.71 58.53 57.65 57.85 59.76 69.89 70.13 65.58 62.99 62.79 62.79 62.42 61.45 62.83 61.04 61.57 63.49 62.62 62.20
73.34 73.45 73.31 73.57 72.85 72.99 74.26 75.19 75.26 75.25 74.79 75.55 76.14 76.52 77.70 76.56 65.59 58.92 58.76 59.29 66.89 73.13 68.12 65.06 59.74 54.05 53.50 55.66 59.77 56.42 57.53 60.20 60.77 61.22 61.66 61.14 59.89 62.17 60.75 61.76 64.90 65.23 63.67
72.87 72.07 72.25 70.98 70.72 69.73 69.06 70.65 69.92 70.51 68.25 70.20 72.03 70.47 69.41 69.54 68.37 58.03 58.03 58.03 59.89 65.95 64.17 57.67 53.46 52.78 54.23 56.71 56.71 57.81 59.31 61.09 60.76 61.53 60.88 59.98 59.59 59.33 62.58 64.37 64.31 64.98 64.37
70.59 71.17 70.49 69.11 64.54 61.98 62.60 60.69 66.65 68.26 68.57 65.72 65.20 66.71 65.81 65.15 64.05 62.64 59.83 58.45 57.23 57.91 57.69 58.69 56.89 56.32 56.26 57.83 59.56 60.52 62.49 63.85 63.54 60.33 59.23 60.52 63.30 62.35 64.09 63.80 62.75 61.52 61.02
70.40 69.12 66.21 64.31 64.01 61.25 53.67 51.24 54.63 57.25 56.38 66.46 67.09 66.59 64.23 62.32 60.41 57.43 57.21 59.30 58.94 56.06 56.81 58.47 57.61 57.61 57.91 58.39 59.13 59.48 59.71 60.94 61.83 61.19 60.46 62.82 63.62 63.51 60.05 62.25 62.72 60.25 59.48
67.65 65.60 64.48 64.14 63.24 60.60 57.82 55.13 47.59 46.05 45.65 46.61 47.88 58.15 53.71 51.01 46.96 46.07 45.89 47.34 48.79 51.69 57.55 57.43 57.13 57.05 57.29 57.82 56.99 56.23 59.01 59.81 60.92 61.64 60.87 59.96 59.34 59.51 59.66 61.75 61.62 58.58 58.71
64.12 63.86 64.76 63.25 62.02 59.39 58.92 57.86 55.34 51.79 46.74 43.77 45.53 47.16 48.24 46.79 46.25 45.53 46.07 47.16 48.24 54.33 58.55 58.11 57.75 57.61 57.50 56.63 56.11 57.20 57.33 58.30 62.51 60.27 58.75 58.36 59.49 59.52 57.36 58.87 57.95 58.81 58.00
63.50 58.43 65.40 63.08 60.66 59.18 60.36 58.73 57.62 55.95 54.11 53.25 46.20 47.92 44.93 44.62 44.98 45.89 47.16 52.54 56.59 56.28 57.39 56.77 56.60 56.64 58.44 58.79 57.66 57.05 57.78 58.20 58.69 58.74 58.50 57.03 56.38 55.10 54.34 54.26 53.56 53.46 53.78
62.30 64.75 64.44 63.71 62.23 61.98 62.93 60.33 57.34 55.49 54.61 53.84 54.50 50.09 47.90 44.98 45.89 46.61 49.48 55.43 54.74 55.06 56.15 57.10 59.53 58.98 58.23 58.00 58.76 59.03 58.89 56.97 57.45 56.68 55.35 54.54 54.51 54.20 53.45 53.88 52.35 49.07 50.60
64.41 61.64 63.47 63.37 63.93 65.40 64.62 62.55 60.20 58.23 57.54 57.36 57.16 56.13 55.07 54.02 55.59 56.69 58.19 59.96 59.74 59.08 59.25 58.99 59.06 59.18 59.44 58.88 58.21 57.46 55.39 55.83 56.60 56.12 55.62 55.28 55.33 55.06 54.31 54.30 53.76 53.89 54.06
64.39 64.35 61.77 65.60 65.10 65.83 65.29 64.50 63.78 63.22 61.23 60.51 60.59 59.98 53.56 59.68 59.18 60.99 60.63 60.19 60.02 59.64 59.14 58.53 59.11 59.13 59.92 59.39 58.81 57.95 57.26 56.81 56.79 56.45 56.25 55.68 55.71 54.76 56.03 55.47 55.74 55.76 54.10
62.68 62.27 63.97 62.57 61.77 62.23 62.16 61.68 58.57 58.87 60.06 59.41 59.32 58.00 50.59 59.16 60.38 60.52 60.16 60.59 61.22 60.86 60.77 61.19 60.48 60.40 60.34 60.19 59.79 58.82 57.93 57.25 57.32 57.27 57.05 56.94 56.46 56.32 56.52 56.23 55.79 55.61 54.91
60.86 60.90 59.82 61.16 61.21 58.23 59.79 59.89 60.27 60.34 59.89 59.47 59.30 59.07 59.58 59.69 59.08 59.65 59.75 60.25 60.58 60.90 61.91 61.90 61.77 61.33 61.70 61.32 60.99 60.47 59.79 58.56 57.98 58.02 58.21 57.82 56.68 56.44 55.78 55.31 54.94 54.01 53.80
60.76 59.77 57.62 57.15 57.18 56.97 58.87 59.23 59.68 55.37 58.83 59.16 58.72 59.73 59.92 60.05 59.85 60.06 60.63 60.91 61.33 61.58 61.69 61.59 61.94 61.74 62.02 61.70 61.43 61.08 60.82 60.18 59.28 58.11 57.37 56.78 56.80 53.93 55.79 55.14 54.95 54.08 53.85
58.50 57.71 56.80 57.36 57.12 57.77 58.20 58.10 58.54 58.60 59.17 59.22 59.01 59.46 59.45 60.03 60.30 60.51 61.08 61.53 61.61 61.56 61.84 62.07 61.88 61.94 61.74 62.30 61.88 60.94 47.43 45.07 57.65 49.71 57.91 56.96 55.83 54.68 54.97 54.32 54.35 53.93 53.62
58.54 58.70 58.29 58.57 58.66 60.06 59.81 59.62 60.05 60.37 60.11 60.50 60.90 61.33 61.30 61.40 61.42 61.57 61.91 61.74 61.32 61.67 61.52 62.30 62.02 61.44 62.14 61.53 61.65 48.58 37.37 41.55 52.52 42.02 57.01 57.69 56.84 55.97 55.42 54.12 53.44 53.48 52.61
MSLP
1012.31 1012.67 1013.21 1013.75 1014.19 1014.72 1014.87 1015.08 1015.36 1015.15 1015.38 1015.69 1015.94 1016.23 1016.24 1016.42 1016.62 1016.81 1016.96 1016.84 1016.87 1016.95 1016.89 1016.88 1016.87 1016.93 1016.61 1016.25 1015.83 1015.58 1015.41 1015.47 1015.39 1014.71 1015.00 1015.15 1015.41 1015.09 1015.17 1015.38 1016.16 1016.23 1017.65
1011.47 1012.12 1012.74 1013.24 1013.59 1013.94 1014.35 1014.36 1014.63 1015.07 1015.41 1015.64 1016.14 1016.18 1016.25 1016.38 1016.37 1016.57 1016.85 1016.29 1016.62 1016.58 1016.56 1016.53 1016.53 1016.39 1016.84 1016.50 1016.16 1015.80 1015.62 1015.89 1016.05 1015.69 1015.61 1015.36 1015.49 1015.90 1015.08 1015.61 1015.62 1015.33 1017.09
1010.84 1011.32 1011.97 1012.52 1012.93 1013.17 1013.44 1013.96 1014.07 1014.35 1014.77 1015.02 1015.37 1015.61 1015.82 1015.85 1015.93 1016.09 1016.31 1016.42 1016.24 1016.07 1016.07 1016.29 1016.45 1016.26 1016.34 1016.45 1016.48 1016.14 1015.70 1016.14 1016.31 1015.63 1015.81 1015.57 1015.58 1015.87 1016.16 1016.39 1016.65 1016.07 1016.40
1010.41 1010.82 1011.24 1011.85 1012.25 1012.59 1012.88 1013.23 1013.65 1013.91 1014.26 1014.53 1014.80 1015.03 1015.24 1015.34 1015.44 1015.67 1015.63 1016.10 1015.98 1015.86 1015.73 1016.01 1016.17 1016.20 1016.08 1016.20 1016.45 1016.69 1016.52 1016.42 1016.12 1016.31 1015.93 1016.14 1016.43 1016.62 1016.85 1016.89 1016.71 1016.78 1017.48
1010.26 1010.64 1010.92 1011.32 1011.73 1012.09 1012.36 1012.66 1012.97 1013.34 1013.76 1014.07 1014.34 1014.55 1014.66 1014.82 1014.76 1014.92 1015.20 1015.26 1015.55 1015.58 1015.37 1015.57 1015.55 1015.74 1016.21 1016.37 1016.47 1016.34 1016.51 1016.57 1016.54 1016.71 1016.80 1016.68 1016.72 1016.93 1017.24 1016.78 1016.68 1016.86 1016.98
1010.32 1010.37 1010.52 1011.24 1011.51 1011.57 1012.02 1012.42 1012.80 1013.15 1013.48 1013.71 1013.89 1014.00 1013.97 1013.93 1013.76 1014.18 1014.81 1014.84 1015.03 1015.13 1015.22 1015.37 1015.43 1015.59 1015.84 1016.23 1016.52 1016.75 1017.04 1016.92 1016.79 1016.67 1016.97 1016.93 1016.85 1016.73 1016.75 1016.87 1016.94 1016.98 1017.09
1010.77 1010.61 1010.63 1010.71 1010.91 1010.93 1011.20 1011.61 1011.90 1012.47 1012.89 1013.19 1013.19 1013.39 1013.50 1013.60 1013.75 1013.90 1014.24 1014.36 1014.66 1014.77 1014.85 1015.03 1015.34 1015.20 1015.72 1016.00 1016.80 1017.05 1017.21 1017.33 1017.31 1017.19 1017.07 1017.02 1016.90 1017.37 1017.34 1017.13 1017.24 1017.25 1017.25
1010.72 1010.71 1010.51 1010.32 1010.30 1010.40 1010.63 1010.86 1011.14 1011.41 1011.75 1012.25 1012.61 1012.73 1012.95 1013.12 1013.42 1013.78 1014.14 1014.34 1014.32 1014.38 1014.55 1014.68 1014.96 1015.27 1015.61 1016.05 1016.47 1016.71 1017.00 1017.69 1017.94 1016.88 1017.13 1017.63 1017.69 1017.78 1017.75 1017.37 1017.26 1017.29 1017.63
1009.99 1010.22 1010.20 1009.99 1009.86 1009.94 1010.12 1010.38 1010.65 1010.91 1010.93 1011.39 1011.78 1012.05 1012.32 1012.49 1012.88 1013.32 1013.88 1013.99 1013.93 1014.05 1014.17 1014.39 1014.81 1015.10 1015.91 1016.05 1016.02 1016.42 1016.74 1017.59 1018.48 1018.31 1018.42 1018.59 1018.57 1018.42 1018.14 1017.19 1017.06 1017.31 1017.53
1010.20 1009.86 1009.51 1009.50 1009.64 1009.67 1009.72 1010.04 1010.31 1010.53 1010.63 1010.58 1010.91 1011.21 1011.47 1011.99 1012.61 1012.99 1013.36 1013.33 1013.15 1013.13 1014.11 1015.21 1015.65 1015.96 1016.28 1016.40 1016.51 1016.33 1016.71 1017.10 1017.65 1018.16 1018.47 1018.69 1018.58 1018.79 1018.65 1018.46 1018.39 1017.55 1017.82
1009.48 1009.59 1009.44 1009.54 1009.60 1009.56 1009.56 1009.70 1010.00 1010.21 1010.35 1010.35 1010.56 1010.67 1010.88 1011.28 1012.31 1012.99 1013.19 1013.11 1012.72 1013.31 1014.42 1015.35 1016.12 1016.46 1016.49 1016.81 1017.04 1017.05 1016.78 1017.32 1018.01 1018.59 1018.92 1019.08 1019.17 1019.08 1019.20 1018.87 1018.81 1018.32 1018.12
1009.24 1009.31 1009.38 1009.41 1009.87 1009.64 1009.61 1009.56 1009.80 1010.01 1010.17 1010.20 1010.36 1010.45 1010.66 1011.20 1011.79 1013.04 1013.40 1013.65 1013.44 1013.85 1015.02 1015.98 1016.83 1017.10 1017.14 1017.13 1017.29 1017.46 1017.63 1018.08 1018.60 1019.10 1019.20 1019.34 1019.27 1019.09 1019.20 1018.92 1019.00 1019.00 1019.00
1009.19 1009.27 1009.37 1010.00 1010.30 1010.46 1010.43 1010.44 1010.54 1010.61 1010.67 1010.47 1010.46 1010.79 1011.24 1011.89 1012.49 1013.12 1013.90 1014.00 1014.21 1014.89 1015.74 1016.53 1017.11 1017.38 1017.59 1017.97 1017.80 1018.09 1018.48 1018.55 1018.92 1019.37 1019.45 1019.41 1019.24 1019.03 1018.93 1018.72 1018.98 1019.11 1019.25
1009.20 1009.34 1009.78 1010.25 1010.87 1011.16 1011.36 1011.47 1011.31 1011.29 1011.25 1011.35 1011.36 1011.54 1012.09 1012.53 1013.04 1013.74 1014.35 1014.62 1014.98 1015.88 1016.60 1017.20 1017.57 1018.05 1018.34 1018.59 1018.27 1018.21 1018.83 1018.82 1018.90 1019.15 1019.17 1019.16 1018.70 1018.40 1018.52 1018.52 1018.33 1018.51 1018.46
1009.17 1009.75 1010.27 1010.66 1011.04 1011.68 1012.57 1012.97 1012.48 1012.21 1012.15 1011.71 1011.68 1012.05 1012.58 1012.96 1013.41 1013.89 1014.37 1014.82 1015.27 1016.24 1016.76 1017.18 1017.93 1018.38 1018.62 1018.78 1019.19 1018.70 1018.94 1018.71 1018.64 1018.67 1018.79 1018.79 1018.67 1018.62 1018.93 1019.01 1018.81 1018.51 1018.35
1009.65 1010.05 1010.32 1010.67 1011.15 1011.98 1012.71 1013.18 1013.25 1012.94 1012.58 1011.93 1011.95 1012.38 1013.43 1013.42 1014.01 1014.47 1014.89 1015.04 1015.85 1016.58 1017.06 1017.67 1018.39 1018.80 1019.42 1018.81 1019.03 1018.83 1018.77 1018.89 1018.87 1018.81 1018.92 1018.99 1019.11 1019.28 1019.33 1019.06 1018.91 1018.88 1018.88
1009.93 1010.10 1010.31 1010.66 1011.44 1012.16 1012.55 1012.97 1013.28 1013.75 1013.31 1013.05 1012.83 1013.28 1013.66 1014.54 1015.04 1015.70 1015.83 1016.52 1017.02 1016.97 1017.41 1018.01 1018.46 1019.05 1019.38 1019.07 1019.02 1018.62 1018.60 1019.07 1019.10 1019.12 1019.17 1019.40 1019.45 1019.49 1019.59 1019.17 1019.21 1019.18 1019.12
1010.01 1010.09 1010.07 1010.88 1011.49 1012.05 1012.43 1013.00 1013.38 1013.71 1013.94 1014.48 1014.67 1014.58 1014.85 1015.39 1015.98 1016.34 1016.60 1016.97 1017.53 1017.74 1017.83 1017.97 1018.51 1018.76 1018.59 1018.57 1018.70 1018.70 1019.03 1019.36 1019.43 1019.57 1019.54 1019.77 1019.71 1019.55 1019.60 1019.61 1019.83 1019.86 1019.73
1010.09 1010.06 1010.42 1010.82 1011.41 1011.68 1012.07 1012.92 1013.60 1014.22 1014.59 1014.99 1015.63 1015.84 1016.02 1016.02 1016.64 1017.21 1017.34 1017.57 1017.70 1017.77 1017.89 1017.67 1017.60 1017.93 1018.25 1018.56 1018.75 1018.99 1019.19 1019.42 1019.49 1019.73 1020.01 1020.08 1019.90 1019.76 1019.88 1019.69 1020.13 1020.10 1020.07
1010.18 1010.18 1010.38 1010.78 1011.09 1011.00 1011.48 1012.44 1013.36 1014.03 1014.49 1014.99 1015.60 1016.05 1016.41 1016.63 1016.90 1017.11 1017.03 1016.53 1016.23 1016.42 1016.78 1016.85 1017.55 1017.97 1018.35 1018.87 1019.16 1019.36 1019.65 1019.73 1019.76 1019.61 1019.68 1019.92 1019.98 1019.81 1019.66 1019.61 1019.76 1019.57 1019.71
1010.34 1010.59 1010.39 1010.68 1010.79 1010.96 1011.11 1011.51 1012.19 1012.53 1012.94 1013.70 1014.59 1015.30 1015.42 1014.89 1015.09 1014.69 1015.16 1015.30 1015.41 1016.08 1016.49 1016.82 1017.40 1017.85 1018.30 1018.56 1018.68 1018.84 1018.86 1019.08 1019.41 1019.55 1019.69 1020.01 1020.04 1019.73 1019.87 1019.98 1019.75 1019.72 1019.84
1010.65 1011.19 1011.43 1011.74 1011.88 1011.93 1011.91 1011.98 1012.56 1012.60 1012.35 1012.72 1013.50 1014.53 1014.72 1014.07 1013.76 1014.06 1014.35 1014.57 1015.05 1015.53 1016.03 1016.65 1017.00 1017.36 1017.72 1018.10 1018.24 1018.33 1018.65 1018.80 1019.06 1019.22 1019.45 1019.68 1019.88 1019.78 1019.78 1019.72 1019.67 1019.61 1019.65
1010.77 1011.43 1011.67 1012.32 1012.05 1012.40 1012.41 1011.98 1011.63 1011.32 1011.84 1012.57 1012.98 1013.28 1013.23 1013.20 1013.66 1013.98 1014.31 1014.65 1015.08 1015.54 1015.86 1016.31 1016.52 1016.93 1017.41 1017.66 1017.86 1018.12 1017.98 1018.18 1018.78 1019.03 1019.16 1019.39 1019.53 1019.65 1019.69 1019.61 1019.54 1019.55 1019.69
1010.81 1011.47 1011.70 1012.29 1012.72 1012.38 1011.94 1011.70 1011.76 1011.67 1011.82 1012.35 1012.81 1012.71 1012.90 1013.18 1013.68 1013.99 1014.14 1014.75 1015.12 1015.37 1015.85 1016.04 1016.22 1016.55 1016.91 1017.14 1017.40 1017.56 1017.77 1018.20 1018.75 1019.37 1019.43 1019.47 1019.49 1019.93 1019.59 1019.70 1019.52 1019.85 1019.85
1011.57 1011.43 1011.93 1012.64 1012.35 1012.16 1011.96 1011.89 1012.15 1012.40 1012.65 1012.94 1013.06 1013.19 1013.42 1013.63 1013.86 1014.27 1014.45 1014.83 1015.12 1015.38 1015.66 1015.90 1016.03 1016.32 1016.68 1016.76 1016.79 1017.18 1018.25 1018.72 1018.99 1019.46 1019.44 1019.82 1019.82 1020.11 1019.96 1019.79 1019.79 1019.76 1020.08
1011.96 1012.01 1011.89 1012.13 1011.82 1011.46 1011.30 1011.24 1011.72 1011.98 1012.33 1012.56 1012.66 1012.90 1013.23 1013.56 1014.00 1014.41 1014.79 1014.99 1015.25 1015.44 1015.80 1016.03 1016.28 1016.81 1016.77 1016.62 1016.79 1017.79 1018.24 1018.76 1019.29 1019.82 1019.58 1019.62 1019.75 1019.77 1019.84 1019.93 1020.02 1019.98 1020.38
Wind_Speed
15 13 12 13 13 12 12 11 10 7 5 6 5 6 6 8 8 6 7 6 7 6 6 5 6 5 6 8 10 9 2 3 6 9 2 6 8 1 1 5 7 7 7
14 13 13 12 13 14 13 13 12 10 9 9 7 10 9 8 8 9 10 8 9 8 8 7 4 7 6 7 8 6 5 6 7 6 8 7 1 3 2 3 7 5 10
14 15 14 14 14 14 14 12 12 11 11 12 11 10 10 10 11 9 10 10 9 6 8 3 6 7 4 7 6 9 7 2 6 5 6 6 6 2 3 1 3 7 8
9 12 12 13 13 14 13 12 13 11 11 12 11 11 11 11 11 11 10 11 11 10 6 5 6 7 7 7 6 6 7 6 6 6 7 6 3 3 5 6 2 2 4
12 12 12 10 12 11 11 11 12 12 12 12 12 13 13 12 12 13 11 9 10 10 9 8 9 3 4 2 6 5 6 6 4 4 3 3 3 3 1 5 4 0 2
10 11 11 11 12 12 12 13 12 12 12 12 13 13 13 12 11 11 13 11 11 9 8 9 9 7 8 3 4 3 5 6 6 4 3 2 1 3 1 3 2 3 1
10 12 13 12 13 13 13 13 13 13 13 14 14 13 14 13 10 13 11 10 9 9 8 8 7 8 3 6 5 5 5 3 3 3 4 3 3 4 4 4 5 3 1
6 7 9 12 12 13 13 13 13 12 14 13 14 14 13 12 13 13 11 12 10 11 10 10 8 10 6 7 9 6 5 4 5 3 5 5 5 4 3 2 3 2 3
12 11 9 11 11 12 14 14 13 13 13 13 13 13 13 13 11 14 13 12 13 12 10 6 7 8 8 5 6 8 8 6 8 13 13 10 8 8 7 5 2 3 1
11 12 10 9 7 8 11 13 14 12 12 12 13 14 15 13 11 13 13 11 12 11 7 6 10 6 4 6 3 4 6 6 5 7 6 6 4 6 10 8 6 5 4
9 9 9 5 9 9 10 9 10 11 11 12 13 13 14 14 11 11 12 10 9 5 6 4 4 5 6 4 2 6 1 8 9 7 5 4 3 3 2 3 3 3 5
9 8 8 4 3 4 7 8 9 10 12 12 11 11 9 7 10 9 7 2 3 6 6 5 6 7 7 9 9 11 16 10 6 4 3 2 0 1 2 3 4 6 7
10 8 4 3 1 4 4 4 1 3 2 4 4 4 4 4 4 9 5 3 9 9 7 10 11 11 11 10 12 12 7 5 5 4 2 1 1 2 3 4 3 4 3
8 7 4 4 4 5 5 4 3 4 2 2 2 3 4 3 4 5 7 10 18 13 14 8 11 11 11 5 5 6 3 3 4 4 4 6 4 2 2 3 1 3 4
4 5 6 5 3 5 6 5 4 1 3 2 3 3 5 5 4 6 8 8 9 10 12 8 7 6 6 6 3 4 3 2 3 3 3 1 2 2 4 4 3 3 3
5 5 4 5 5 4 4 4 14 11 8 11 11 7 5 11 13 16 17 19 17 12 9 8 7 6 2 3 4 4 3 4 3 3 4 4 4 3 3 1 1 3 4
4 6 5 6 6 5 5 5 5 8 19 18 14 15 17 17 20 16 17 16 10 10 9 7 6 4 4 4 4 3 7 5 4 4 5 5 3 3 3 2 4 4 4
5 5 7 8 8 7 8 7 7 6 7 8 15 11 18 18 16 15 14 11 7 6 6 7 6 5 5 5 6 7 6 4 3 3 3 3 3 3 3 2 4 4 3
6 5 8 10 10 10 11 11 9 8 8 8 7 9 11 14 14 10 10 7 7 7 8 8 7 7 7 6 5 5 5 5 4 4 4 3 2 3 2 2 5 2 2
5 5 7 9 10 12 12 12 11 10 8 7 7 7 7 7 6 8 7 9 8 8 7 8 6 5 6 6 6 5 5 5 5 4 4 3 2 2 2 2 3 2 2
5 4 3 9 7 10 11 12 11 9 11 12 12 13 17 12 11 10 10 8 9 9 9 9 8 8 7 7 6 6 5 5 4 4 4 3 1 3 1 2 2 1 4
6 4 3 6 6 5 8 9 8 10 11 11 10 8 7 7 8 8 8 7 8 9 9 8 7 7 7 6 5 5 5 5 4 3 3 3 3 3 0 1 2 1 2
8 9 8 2 6 6 5 5 7 9 11 11 11 9 8 8 8 8 8 8 8 8 8 7 6 7 6 6 5 3 2 6 5 3 1 2 2 1 3 3 3 3 6
11 12 12 3 2 2 3 7 7 10 8 9 7 4 7 7 7 7 7 7 6 6 6 5 6 8 8 6 6 6 4 6 5 6 3 3 1 5 3 2 2 6 4
3 11 10 4 5 5 7 8 7 7 5 4 3 4 5 5 7 6 6 5 5 5 4 3 5 7 6 7 6 5 14 14 8 4 3 2 3 2 2 5 3 4 3
4 2 6 9 9 8 8 8 8 8 9 8 8 7 5 5 5 5 4 4 4 3 2 2 2 3 8 5 10 10 13 15 8 1 3 3 1 2 3 3 0 5 3
Wind_Direction
207 195 198 194 197 204 208 201 235 241 267 234 198 252 230 221 222 226 259 296 194 230 257 262 254 258 286 323 333 323 11 286 288 321 301 75 271 334 333 41 156 187 144
208 201 199 200 203 201 213 210 204 217 211 225 222 219 222 236 252 202 232 256 215 230 241 243 239 260 186 251 275 244 288 314 283 308 303 314 38 354 349 331 315 102 127
200 201 207 203 207 216 207 215 221 205 212 218 206 216 219 229 228 223 242 245 255 260 236 219 279 262 270 266 313 309 312 340 255 305 297 307 306 13 332 314 235 295 101
200 209 205 211 214 218 218 215 212 221 213 221 219 212 223 229 228 235 218 221 243 242 230 213 227 257 262 272 261 279 275 299 299 284 283 350 339 0 354 343 348 333 148
207 225 212 219 217 222 236 231 222 215 217 220 220 216 216 224 223 216 228 230 216 238 250 257 252 37 60 314 281 268 286 265 302 304 302 308 338 1 80 234 258 21 75
249 244 230 212 228 228 221 222 223 227 228 225 225 227 223 225 216 157 187 222 217 227 245 249 257 197 213 181 229 256 321 270 262 263 292 282 241 244 324 351 330 343 330
251 246 233 233 228 220 222 218 219 216 226 226 225 223 226 228 166 168 179 220 225 237 239 243 259 278 311 251 122 131 114 90 359 310 300 350 353 28 349 359 4 20 25
259 252 254 243 232 234 223 226 224 222 213 219 227 221 225 224 181 177 177 222 224 234 244 255 230 257 259 253 179 179 144 73 9 313 58 65 69 27 304 259 325 314 118
232 230 237 244 241 237 224 228 230 225 218 213 222 222 221 229 183 178 178 222 231 231 236 271 256 244 76 54 233 189 187 118 80 68 84 87 68 37 4 304 340 5 261
263 264 246 252 282 265 254 236 234 231 237 233 215 218 215 223 175 176 195 225 231 233 116 122 59 81 63 68 277 225 220 149 136 130 113 74 62 58 33 28 358 16 9
268 263 265 269 260 257 263 256 246 237 235 236 232 220 221 215 185 206 202 221 249 132 156 166 103 97 88 66 337 307 228 116 74 85 75 59 28 47 44 55 350 356 344
268 252 242 248 314 317 304 269 261 249 241 235 231 223 216 194 133 192 202 242 296 164 124 107 98 68 64 86 89 84 80 87 94 110 109 82 341 230 126 71 40 34 49
278 244 207 152 108 33 6 349 18 352 331 263 198 154 118 112 97 124 162 145 87 114 118 108 108 93 90 89 104 105 109 117 119 132 110 79 273 133 172 168 130 115 109
269 223 163 140 98 50 26 8 334 297 214 173 133 150 136 119 119 130 122 105 100 102 111 100 92 78 67 52 96 81 87 129 137 138 182 209 196 138 65 348 219 211 222
250 168 133 122 103 87 58 10 343 27 297 266 188 165 163 161 152 137 139 134 123 119 120 108 107 98 106 100 16 113 178 182 126 84 95 142 47 38 54 356 351 298 288
161 152 157 140 121 102 111 84 44 34 359 91 70 108 45 85 96 100 94 94 107 119 99 98 107 90 99 98 134 112 109 75 62 88 74 53 48 39 347 177 301 353 343
155 142 147 145 114 121 111 99 87 64 58 43 83 102 101 110 99 95 100 96 99 102 106 114 107 115 166 176 189 163 89 80 44 66 61 45 349 138 261 59 5 7 25
153 200 145 132 125 126 121 100 84 72 77 72 42 87 97 100 99 106 104 99 86 71 108 115 127 174 205 129 115 105 112 108 103 97 93 61 46 49 61 59 39 1 3
151 183 138 139 142 141 131 118 107 100 96 94 98 76 79 88 100 100 98 113 129 147 167 176 161 140 131 123 111 111 103 74 88 112 103 102 101 92 97 117 131 54 264
183 154 149 149 167 154 137 128 128 124 119 116 119 124 129 123 143 174 206 197 163 144 138 127 113 112 106 120 129 118 129 148 163 149 109 101 84 27 93 109 35 356 74
130 167 128 156 158 159 156 152 154 153 147 150 146 160 181 172 177 151 147 156 145 139 142 139 141 138 142 147 151 146 141 124 130 133 145 116 322 117 152 124 20 9 70
114 104 107 102 116 122 128 129 156 175 162 137 136 160 218 234 140 140 136 137 126 136 136 141 140 152 152 154 165 139 144 133 136 145 149 160 183 161 3 234 324 347 317
108 101 66 183 127 139 147 200 219 134 126 133 141 154 177 136 133 136 137 129 139 144 141 161 162 160 161 169 179 185 196 126 104 35 138 167 201 342 342 322 340 326 63
114 112 106 29 327 195 127 116 91 70 113 135 144 149 117 135 130 130 130 141 150 153 159 181 180 195 177 198 183 192 194 119 135 113 324 19 96 180 293 338 315 40 333
71 107 111 141 247 173 141 131 122 125 122 110 125 92 127 156 137 161 136 153 164 164 164 203 198 196 217 221 253 146 91 83 64 32 154 41 50 358 326 314 25 331 9
101 107 160 188 199 181 167 152 158 165 164 174 167 161 149 144 127 123 132 137 173 134 31 166 14 315 302 252 221 137 135 131 129 52 277 163 238 269 0 303 216 292 110